Regional Weather Roundup
Issued by NWS

Home | Current Version | Previous Version | Text Only | Print | Product List | Glossary On
Versions: 1 2 3 4 5 6 7 8 9 10 11 12 13 14 15 16 17 18 19 20 21 22 23 24 25 26 27 28 29 30 31 32 33 34 35 36 37 38 39 40 41 42 43 44 45 46 47 48 49 50
042
ASUS44 KFWD 201215
RWRTX
NORTH TEXAS HOURLY WEATHER ROUNDUP
NATIONAL WEATHER SERVICE FORT WORTH TX
700 AM CDT FRI OCT 20 2017

NOTE: "FAIR" INDICATES FEW OR NO CLOUDS BELOW 12,000 FEET WITH NO
SIGNIFICANT WEATHER AND/OR OBSTRUCTIONS TO VISIBILITY.

TXZ118-119-201300-
DALLAS/FORT WORTH METROPLEX

CITY           SKY/WX    TMP DP  RH WIND       PRES   REMARKS
DFW AIRPORT    MOCLDY    63  58  83 E5        30.06R
6HR MIN TEMP:  63; 6HR MAX TEMP:  70;

DALLAS LOVE    MOCLDY    65  57  75 SE7       30.07S
6HR MIN TEMP:  64; 6HR MAX TEMP:  69;

FTW MEACHAM    FAIR      64  59  83 E3        30.06S
6HR MIN TEMP:  63; 6HR MAX TEMP:  69;

DAL-EXECUTIVE  FAIR      61  58  90 SE3       30.07S
6HR MIN TEMP:  60; 6HR MAX TEMP:  67;

FTW-ALLIANCE   MOCLDY    61  58  90 CALM      30.06S
6HR MIN TEMP:  56; 6HR MAX TEMP:  69;

FTW-NAS-JRB    FAIR      64  57  78 E3        30.07S
6HR MIN TEMP:  63; 6HR MAX TEMP:  70;

FTW-SPINKS     CLEAR     57  55  94 CALM      30.08S
ARLINGTON      FAIR      59  58  96 CALM      30.06F
6HR MIN TEMP:  59; 6HR MAX TEMP:  69;

GRAND PRAIRIE  CLEAR     64  55  72 CALM      30.08F
ADDISON        CLEAR     64  57  77 E6        30.08R
MESQUITE       MOCLDY    63  55  77 CALM      30.08S
LANCASTER      MOCLDY    59  55  84 CALM      30.08S
6HR MIN TEMP:  58; 6HR MAX TEMP:  65;

$$

TXZ091>094-102>105-117-120-121-131>134-201300-
NORTH CENTRAL TEXAS

CITY           SKY/WX    TMP DP  RH WIND       PRES   REMARKS
SHRMAN/DENISON FAIR      58  55  90 E3        30.09S
6HR MIN TEMP:  57; 6HR MAX TEMP:  66;

GAINESVILLE    FAIR      57  55  91 CALM      30.09S
6HR MIN TEMP:  57; 6HR MAX TEMP:  61;

BOWIE          MOCLDY    60  57  89 CALM      30.08S
6HR MIN TEMP:  60; 6HR MAX TEMP:  61;

BRIDGEPORT     FAIR      61  58  91 CALM      30.08S
6HR MIN TEMP:  61; 6HR MAX TEMP:  65;

DECATUR        FAIR      62  57  86 SE3       30.07R
6HR MIN TEMP:  60; 6HR MAX TEMP:  66;

DENTON         FAIR      60  57  89 SE3       30.07S
6HR MIN TEMP:  60; 6HR MAX TEMP:  67;

MCKINNEY       FAIR      59  57  93 CALM      30.08S
6HR MIN TEMP:  57; 6HR MAX TEMP:  68;

BONHAM         FAIR      57  54  89 E3        30.10S
6HR MIN TEMP:  57; 6HR MAX TEMP:  62;

GREENVILLE     FAIR      64  59  82 CALM      30.09R
ROCKWALL       FAIR      62  56  83 E3        30.09R
6HR MIN TEMP:  62; 6HR MAX TEMP:  66;

TERRELL        FAIR      63  56  78 CALM      30.08S
6HR MIN TEMP:  63; 6HR MAX TEMP:  68;

WAXAHACHIE     FAIR      60  58  95 CALM      30.09S
6HR MIN TEMP:  59; 6HR MAX TEMP:  66;

CLEBURNE       FAIR      61  59  94 SE5       30.08S
GRANBURY       FAIR      63  59  87 E6        30.07S
6HR MIN TEMP:  60; 6HR MAX TEMP:  69;

$$

TXZ083>090-098>101-113>116-127>130-139>142-154-155-201300-
WESTERN NORTH TEXAS

CITY           SKY/WX    TMP DP  RH WIND       PRES   REMARKS
WICHITA FALLS  FAIR      62  58  86 S7        30.05F
6HR MIN TEMP:  60; 6HR MAX TEMP:  64;

WF-KICKAPOO    FAIR      63  59  87 SE8       30.08F
6HR MIN TEMP:  60; 6HR MAX TEMP:  64;

VERNON         FAIR      64  53  67 S9        30.04S
ABILENE        MOCLDY    63  62  97 S10       30.08F
6HR MIN TEMP:  63; 6HR MAX TEMP:  68; 6HR PCP:  0.04;

ABILENE-DYESS  PTCLDY    63  60  89 S12       30.07S
6HR MIN TEMP:  63; 6HR MAX TEMP:  68; 6HR PCP: TRACE;

GRAHAM         MOCLDY    64  59  83 CALM      30.05F
6HR MIN TEMP:  64; 6HR MAX TEMP:  66;

BRECKENRIDGE   MOCLDY    66  60  81 W3        30.08R
6HR MIN TEMP:  66; 6HR MAX TEMP:  69;

CISCO          FAIR      64  61  88 SW6       30.10R
EASTLAND       FAIR      61  59  92 NW5       30.09R
6HR MIN TEMP:  61; 6HR MAX TEMP:  65;

RANGER         FAIR      63  58  84 CALM      30.06S
6HR MIN TEMP:  42; 6HR MAX TEMP:  91;

MINERAL WELLS  FAIR      62  58  86 S3        30.05R
6HR MIN TEMP:  61; 6HR MAX TEMP:  65;

STEPHENVILLE   FAIR      61  58  90 CALM      30.09S
6HR MIN TEMP:  60; 6HR MAX TEMP:  64;

COMANCHE       FAIR      62  61  99 SE5       30.06S
6HR MIN TEMP:  61; 6HR MAX TEMP:  66;

BROWNWOOD      FAIR      63  59  88 CALM      30.07R
COLEMAN        CLOUDY    63  59  86 W6        30.11R
6HR MIN TEMP:  62; 6HR MAX TEMP:  68;

$$

TXZ143>147-156>162-174-175-201300-
CENTRAL TEXAS

CITY           SKY/WX    TMP DP  RH WIND       PRES   REMARKS
WACO           MOCLDY    61  58  90 CALM      30.07R
6HR MIN TEMP:  60; 6HR MAX TEMP:  69;

WACO-TSTC      PTCLDY    59  57  94 CALM      30.08
WACO-MCGREGOR  FAIR      59  56  89 CALM      30.07S
6HR MIN TEMP:  59; 6HR MAX TEMP:  67;

HILLSBORO      FAIR      64  58  82 E9        30.06F
6HR MIN TEMP:  64; 6HR MAX TEMP:  68;

CORSICANA      FAIR      65  60  84 E5        30.09R
6HR MIN TEMP:  63; 6HR MAX TEMP:  69;

MEXIA          FAIR      62  57  83 CALM      30.08R
6HR MIN TEMP:  61; 6HR MAX TEMP:  68;

HEARNE         CLOUDY    65  62  91 CALM      30.08R
6HR MIN TEMP:  64; 6HR MAX TEMP:  69;

CAMERON        CLOUDY    62  60  91 CALM      30.07R
6HR MIN TEMP:  61; 6HR MAX TEMP:  69;

TEMPLE         FAIR      59  57  93 NE5       30.06F
6HR MIN TEMP:  59; 6HR MAX TEMP:  68;

KILLEEN        FAIR      62  59  91 CALM      30.05S
6HR MIN TEMP:  60; 6HR MAX TEMP:  65;

FORT HOOD      FAIR      61  59  93 E6        30.02F
6HR MIN TEMP:  61; 6HR MAX TEMP:  67;

GATESVILLE     FAIR      61  59  94 CALM      30.08S
HAMILTON       FAIR      59  59 100 CALM      30.07S
6HR MIN TEMP:  59; 6HR MAX TEMP:  64;

LAMPASAS       FAIR      58  57  95 CALM      30.05S
6HR MIN TEMP:  58; 6HR MAX TEMP:  64;

$$

TXZ095>097-106>112-122>126-135>138-148>153-164>167-201300-
EAST TEXAS

CITY           SKY/WX    TMP DP  RH WIND       PRES   REMARKS
PARIS          FAIR      61  56  83 E8        30.12R
6HR MIN TEMP:  57; 6HR MAX TEMP:  61;

SULPHUR SPRNGS FAIR      62  58  87 SE7       30.12S
6HR MIN TEMP:  61; 6HR MAX TEMP:  63;

MOUNT PLEASANT FAIR      60  56  87 CALM      30.13R
6HR MIN TEMP:  54; 6HR MAX TEMP:  60;

GILMER         FAIR      61  55  82 E5        30.11S
6HR MIN TEMP:  59; 6HR MAX TEMP:  63;

MINEOLA        FAIR      63  57  82 SE3       30.09F
TYLER          FAIR      65  60  84 SE7       30.10R
6HR MIN TEMP:  63; 6HR MAX TEMP:  67; 6HR PCP:  0.01;

LONGVIEW       FAIR      62  58  86 E9        30.10S
6HR MIN TEMP:  60; 6HR MAX TEMP:  63;

MARSHALL       FAIR      60  55  83 CALM      30.15R
6HR MIN TEMP:  57; 6HR MAX TEMP:  63;

ATHENS         LGT RAIN  63  57  82 NE3       30.08R
PALESTINE      FAIR      67  61  81 E5        30.09R
JACKSONVILLE   FAIR      63  59  87 NE3       30.11R
HENDERSON      LGT RAIN  64  58  83 CALM      30.12R
6HR MIN TEMP:  59; 6HR MAX TEMP:  64;

CENTER         FAIR      65  63  90 E6        30.13R
6HR MIN TEMP:  60; 6HR MAX TEMP:  65;

NACOGDOCHES    FAIR      67  61  81 E10       30.09F
6HR MIN TEMP:  59; 6HR MAX TEMP:  67; 6HR PCP: TRACE;

LUFKIN         FAIR      66  63  90 SE9       30.08R
6HR MIN TEMP:  62; 6HR MAX TEMP:  66; 6HR PCP:  0.01;

$$

SUPPLEMENTAL OBSERVATIONS (NWS FORT WORTH AREA)

CITY           SKY/WX    TMP DP  RH WIND       PRES   REMARKS
DENISON DAM      N/A     59  55  88 E3          N/A
PAT MAYSE LAKE   N/A     57  55  94 N1          N/A



USA.gov is the U.S. government's official web portal to all federal, state and local government web resources and services.